Погода в Нижнем Черьке

Россия / Кабардино-Балкарская Республика     43°30′23″N   43°55′03″E
темп.,
°C
ветер,
м/с
пор.,
м/с
влажн.,
%
обл.,
%
осадки,
мм/ч
давл.,
гПа
погр.,
м
12 мая, ср
ср1200:00+6зсз22870 0.0 101619
03:00+5зсз23910 0.0 101642
06:00+6зсз22850 0.0 1017105
09:00+13с22660 0.0 1017618
12:00+17св32540 0.0 10161190
15:00+19св32513 0.0 10151326
18:00+17всв23650 0.0 1015113
21:00+13ю227495 0.0 101511
13 мая, чт
чт1300:00+11ю228575 0.0 101412
03:00+10ю22870 0.0 101411
06:00+12юз01800 0.0 101442
09:00+18св22630 0.0 1014524
12:00+23св33530 0.0 1013973
15:00+25св33505 0.0 10131167
18:00+22св35671 0.0 1013121
21:00+17ююз227898 0.0 101411
14 мая, пт
пт1400:00+15ююз118514 0.0 101311
03:00+14юз11830 0.0 101310
06:00+15зсз11775 0.0 101434
09:00+21ссв006397 0.0 1013364
12:00+26св325132 0.0 1012811
15:00+28св33491 0.0 10111078
18:00+25ссв34660 0.0 101195
21:00+20юз22741 0.0 101211
15 мая, сб
сб1500:00+18зюз11824 0.0 101111
03:00+17юз11765 0.0 101111
06:00+18ю22680 0.0 101234
09:00+24сз22555 0.0 1012395
12:00+28с334899 0.0 10121125
15:00+29с2348100 0.0 10121667
18:00+22юз4673100 0.3 1012120
21:00+19ююз3371100 1.3 101326
16 мая, вс
вс1600:00+18юз227460 0.0 101112
03:00+17ююз22765 0.0 101113
06:00+19ююз11740 0.0 101141
09:00+24в23640 0.0 1009532
12:00+28св45540 0.0 10071398
15:00+29св45504 0.0 10051557
18:00+26св36600 0.0 1005150
21:00+18сз226911 0.0 100519